This is the latest recevied weather packets stored in our database for station/object W2TAO. If no packets are shown the sender has not sent any weather packets the latest 10 day(s).
| Time | Temp. | Humidity | Pressure | Rain* | Wind** | Luminosity | Snow |
|---|---|---|---|---|---|---|---|
| 1778074294 | 15.56° C | 87% | 1010.2 hPa | 0 mm | - | 43 W/m² | - |
| 1778073992 | 15.56° C | 87% | 1010 hPa | 0 mm | - | 45 W/m² | - |
| 1778073688 | 15.56° C | 88% | 1010.3 hPa | 0 mm | - | 41 W/m² | - |
| 1778073386 | 15.56° C | 88% | 1010.1 hPa | 0 mm | - | 49 W/m² | - |
| 1778073081 | 15.56° C | 88% | 1009.9 hPa | 0 mm | - | 49 W/m² | - |
| 1778072779 | 15.56° C | 89% | 1009.8 hPa | 0 mm | - | 49 W/m² | - |
| 1778072476 | 15.56° C | 88% | 1009.7 hPa | 0 mm | - | 49 W/m² | - |
| 1778072174 | 16.11° C | 86% | 1009.8 hPa | 0 mm | - | 63 W/m² | - |
| 1778071872 | 15.56° C | 88% | 1009.8 hPa | 0 mm | - | 81 W/m² | - |
| 1778071569 | 16.11° C | 86% | 1009.6 hPa | 0 mm | - | 51 W/m² | - |
| 1778071267 | 16.11° C | 85% | 1009.7 hPa | 0 mm | - | 34 W/m² | - |
| 1778070964 | 16.11° C | 84% | 1009.7 hPa | 0 mm | - | 45 W/m² | - |
| 1778070663 | 16.11° C | 83% | 1010.1 hPa | 0 mm | - | 34 W/m² | - |
| 1778070359 | 16.11° C | 83% | 1009.9 hPa | 0 mm | - | 14 W/m² | - |
| 1778070057 | 16.11° C | 82% | 1010 hPa | 0 mm | - | 15 W/m² | - |
| 1778069755 | 16.11° C | 82% | 1010.1 hPa | 0 mm | - | 24 W/m² | - |
| 1778069450 | 16.11° C | 82% | 1010.2 hPa | 0 mm | - | 20 W/m² | - |
| 1778069149 | 16.11° C | 82% | 1010 hPa | 0 mm | - | 35 W/m² | - |
| 1778068846 | 16.11° C | 82% | 1010.2 hPa | 0 mm | - | 30 W/m² | - |
| 1778068544 | 16.11° C | 82% | 1010.1 hPa | 0 mm | - | 23 W/m² | - |
| 1778068242 | 16.11° C | 82% | 1010 hPa | 0 mm | - | 28 W/m² | - |
| 1778067939 | 16.11° C | 82% | 1010 hPa | 0 mm | - | 24 W/m² | - |
| 1778067637 | 16.11° C | 81% | 1009.8 hPa | 0 mm | - | 28 W/m² | - |
| 1778067335 | 16.11° C | 81% | 1010 hPa | 0 mm | - | 39 W/m² | - |
| 1778067032 | 16.67° C | 81% | 1010 hPa | 0 mm | - | 25 W/m² | - |
* Rain latest hour (hover to see other rain measurements)
** Current wind speed in m/s (hover to see current wind gust speed)